Location: Cazavet
(43.0017°N, 1.0431°E)
Time: 21:33:55
(UTC+00:00)

Cosmos 2184 Rocket - Pass Details

Date: 18 January 2026
Orbit: 958 x 1001 km, 82.9° (Epoch: 10 February)

Event Time Altitude Azimuth Distance (km) Brightness Sun altitude
Rises 04:50:04 0° 177° (S) 3,650 7.1 -27.6°
Reaches altitude 10° 04:52:35 10° 174° (S) 2,702 6.4 -27.1°
Maximum altitude 04:58:42 66° 94° (E) 1,045 4.3 -26.0°
Drops below altitude 10° 05:04:48 10° 13° (NNE) 2,701 6.4 -24.9°
Sets 05:07:19 0° 11° (N) 3,650 7.1 -24.4°
